Starlink 1474

operational
NORAD ID: 45738 Int'l Des: 2020-038 Owner: SPXS Country: US Constellation: starlink
LEOCIRCULAR

Starlink 1474について

説明を読み込み中...

リアルタイム位置

3D地球を読み込み中...

次回通過

高度履歴

Altitude vs Time

uPlot chart will show altitude changes over time

軌道要素

1 45738U 20038J 25303.44215844 .00087694 00000-0 81851-3 0 9995
2 45738 53.0386 359.3877 0003632 330.7887 29.2925 15.66595319297991
Epoch: Oct 30, 2025 • Age: 24 hours

現在のステータス

高度 383.7 km
速度 7.68 km/s
衛星直下点 -45.96°S, 25.98°E
打ち上げ日 Jun 13, 2020
運用期間 5.3 years
タイプ internet

技術仕様

分類 Payload
質量 260.00 kg
乾燥質量 248.00 kg
総質量 260.00 kg
長さ 0.20 m
直径 2.80 m
スパン 9.00 m
形状 Box + pan
製造者 SPXS
バスタイプ Starlink
フェーズステータス In Orbit
所有者/国 SPXS/US

大規模コンステレーション

Loading constellations...